Tracking 23764 objects as of 17-Oct-2021
HD Live streaming from Space Station
objects crossing your sky now

ARIANE 3 DEB (SYLDA)

Track ARIANE 3 DEB (SYLDA) now!
10-day predictions


NORAD ID: 15680
Int'l Code: 1985-035D
Perigee: 319.1 km
Apogee: 6,591.0 km
Inclination: 6.8 °
Period: 161.6 minutes
Semi major axis: 9826 km
RCS: 7.2153 m2 (large)
Launch date: May 8, 1985
Source: France (FR)
Launch site: FRENCH GUIANA (FRGUI)

Note: This is SATELLITE DEBRIS
aabbcc
Your satellite tracking list
Your tracking list is empty




NASA's NSSDC Master Catalog

Two Line Element Set (TLE):
1 15680U 85035D   21290.28821662  .00034240  00000-0  28574-2 0  9991
2 15680   6.7825 123.9174 3191440  21.8719 349.1805  8.91321299660856
Source of the keplerian elements: AFSPC